Theta_e
331 329 327 331 326 321 323 320 315 317 324 322 312 310 312 311 310 311 310 311 316 321 325 329 331 331 332 332 334 334 339 347 348 349 347 342 344 350 351 353 353 356 360 360 356 356 358 361 362 363 363 363 365 365 367 367 366 365 364 363 364 364 362
330 329 328 330 328 326 321 315 317 323 326 323 317 312 312 312 310 311 310 309 312 312 317 326 330 330 332 333 333 334 336 342 345 346 348 346 345 345 350 354 355 355 361 361 358 357 358 359 362 364 363 363 365 365 368 368 368 368 365 364 365 364 362
329 331 328 326 328 329 325 321 324 322 315 314 316 313 312 312 313 312 310 310 311 310 314 323 327 330 331 332 333 333 333 336 339 342 348 348 346 346 349 353 354 353 355 357 359 357 357 360 363 364 364 364 365 366 369 370 369 369 367 366 366 365 364
327 329 326 320 321 326 327 327 327 325 317 315 315 314 312 312 313 314 313 311 311 315 323 326 330 333 333 332 335 335 333 334 336 340 346 349 348 348 347 349 353 350 348 354 359 356 354 359 364 364 362 363 364 366 370 371 370 370 368 368 367 367 367
324 322 325 322 322 323 322 320 319 319 320 319 318 316 313 312 313 313 314 312 311 320 331 333 333 336 333 332 336 336 333 332 335 341 347 349 349 346 345 347 348 348 348 351 355 355 356 357 363 364 363 364 363 366 370 371 371 370 370 369 368 367 367
317 320 328 329 328 327 323 320 318 318 318 315 313 313 313 312 312 311 313 311 312 323 335 334 333 336 334 332 334 334 334 332 334 340 346 349 348 344 345 347 348 349 350 351 352 353 355 356 361 364 363 364 362 366 370 371 371 371 370 369 368 367 367
321 327 330 329 328 330 327 324 325 326 321 315 310 310 312 311 311 312 311 310 315 330 336 334 333 336 332 333 334 332 332 332 335 335 339 347 348 345 344 344 345 348 349 349 350 351 352 355 361 365 364 363 364 365 367 369 371 372 369 370 368 366 366
327 327 329 329 330 330 326 324 326 327 323 320 317 316 316 313 310 310 311 309 316 330 338 335 334 335 332 332 333 333 333 333 335 335 339 349 352 348 347 347 349 353 353 355 357 355 357 359 364 366 365 365 364 364 366 368 370 371 371 370 368 366 366
323 320 320 323 325 326 325 325 326 327 326 326 323 321 320 315 311 311 311 309 314 329 339 335 332 333 332 332 332 332 334 333 334 337 345 354 357 353 350 355 359 358 361 365 366 366 366 366 366 367 365 366 365 364 366 367 369 370 370 369 368 367 367
317 314 314 316 319 323 324 325 326 325 327 326 321 317 314 313 314 315 312 310 317 332 338 333 331 330 332 333 332 332 336 338 343 352 355 358 359 357 357 359 358 360 365 367 368 373 373 367 365 366 367 366 365 365 366 365 367 369 369 368 368 368 368
318 318 320 324 325 321 318 321 323 325 326 326 324 316 311 315 317 314 316 319 319 325 334 333 330 330 331 332 331 335 344 346 348 357 361 359 361 361 360 361 361 363 369 371 372 375 373 365 364 367 366 366 365 366 366 365 366 367 368 367 366 367 369
326 331 332 333 330 323 318 320 320 323 326 326 322 314 316 324 317 311 326 337 323 322 335 336 332 335 335 334 333 338 345 342 344 354 358 352 354 357 359 367 371 369 373 380 379 376 372 365 364 365 365 366 365 366 366 365 365 365 365 366 366 367 369
329 335 333 334 332 329 325 324 321 323 324 323 320 318 322 328 319 315 333 340 327 329 335 332 333 337 335 334 335 337 341 339 343 351 350 345 348 352 356 369 372 366 373 386 385 378 373 367 365 365 364 365 367 365 365 365 364 364 365 364 365 365 368
327 331 332 333 332 329 329 327 324 326 326 323 322 324 326 329 325 326 335 336 331 332 333 330 331 335 333 334 337 336 338 341 343 345 343 342 344 344 350 362 366 365 374 383 384 383 378 371 366 364 363 365 366 366 364 365 364 364 364 364 363 364 366
322 328 330 331 331 330 326 326 326 326 325 324 324 325 327 327 326 329 333 332 333 335 335 333 335 338 336 336 338 339 339 339 339 337 337 340 340 342 347 354 360 366 372 378 383 384 381 375 369 364 363 365 364 363 364 364 365 362 362 364 363 363 365
320 325 329 328 329 328 323 323 325 323 322 323 323 325 327 326 325 326 324 324 330 335 335 334 335 338 337 336 337 338 337 338 336 333 334 337 341 347 353 358 362 364 365 368 375 375 371 369 367 363 364 362 361 362 362 361 363 362 362 364 364 363 364
321 325 327 326 325 323 319 321 326 326 326 326 325 327 329 328 328 326 321 324 334 340 338 335 334 335 336 337 335 335 340 344 338 333 334 335 336 341 351 357 361 359 358 363 368 366 362 362 360 359 360 361 359 361 361 360 361 360 360 362 363 365 364
320 323 326 325 322 318 321 327 331 331 330 329 327 327 329 329 329 329 328 334 341 340 337 336 336 336 337 340 337 335 340 345 340 335 336 336 334 338 342 342 347 354 362 366 364 360 357 358 358 356 357 358 360 358 357 359 359 360 360 360 363 366 366
321 321 322 321 319 321 327 330 331 331 330 331 331 329 329 329 329 329 332 337 339 339 337 336 338 339 338 337 337 335 336 338 339 336 337 338 339 339 341 346 357 367 369 365 359 356 353 352 355 359 358 357 357 358 357 357 357 359 361 359 361 367 367
321 320 320 320 322 326 329 332 332 330 331 331 329 328 329 330 329 330 333 334 337 338 335 334 337 338 335 335 337 335 334 335 334 334 336 338 336 334 344 361 370 372 365 358 355 357 355 348 347 355 356 357 356 356 357 356 356 358 361 359 361 365 368
321 318 318 320 322 323 325 330 331 330 331 332 328 324 328 332 332 332 334 335 334 333 334 334 335 334 335 335 335 333 333 333 332 339 347 349 345 343 350 360 365 367 366 362 360 360 359 353 348 346 348 351 354 354 355 356 357 356 359 360 360 363 367
322 319 319 321 319 318 322 326 331 331 329 331 332 327 326 330 331 330 332 334 333 332 332 332 335 335 335 336 337 339 342 347 349 351 355 355 352 353 357 360 364 368 369 367 364 361 360 357 354 352 349 348 352 354 354 354 355 356 356 360 361 362 366
320 320 320 321 317 319 326 329 330 329 329 333 333 324 322 333 336 331 331 332 333 337 339 338 340 341 338 340 346 348 349 353 354 353 356 356 354 356 362 363 363 362 364 364 364 364 362 361 358 357 353 350 350 356 358 354 354 357 356 358 361 361 364
319 319 320 320 321 325 331 330 330 330 331 333 329 321 326 342 345 338 337 336 337 344 348 346 344 344 341 345 351 350 349 352 353 352 354 355 355 357 360 361 359 357 359 364 366 366 367 368 366 363 360 357 355 359 360 356 353 356 357 358 360 361 362
318 318 318 320 326 330 331 330 332 332 330 329 326 325 335 346 344 340 342 343 343 347 349 348 347 346 345 347 349 348 349 351 350 349 351 354 357 355 355 359 360 357 358 364 367 364 366 368 367 364 362 362 362 362 360 360 357 356 356 357 358 361 362
317 319 317 318 327 331 328 328 333 332 330 332 332 336 341 342 341 343 344 345 347 348 348 348 347 346 345 346 349 349 349 349 349 350 352 355 357 354 353 357 361 356 358 366 367 366 367 366 368 369 367 365 365 364 364 366 361 355 356 358 359 361 363
317 318 316 320 331 334 329 330 336 335 336 337 339 340 340 339 341 342 343 344 346 346 346 346 345 346 348 349 349 348 349 349 349 350 352 353 354 354 354 358 358 355 358 364 366 365 366 365 366 369 373 374 368 363 363 364 359 356 359 361 361 362 363
316 317 318 324 330 330 326 330 334 333 334 337 338 338 339 339 339 340 342 344 343 343 344 344 344 346 347 347 347 348 348 348 348 350 352 352 353 352 354 358 357 355 358 363 364 363 364 364 365 367 374 377 369 363 367 366 359 358 361 363 364 366 365
320 320 322 324 326 325 323 326 328 327 328 331 333 336 338 337 337 338 340 341 341 341 342 342 343 345 344 344 345 345 346 347 348 348 349 351 352 353 353 355 355 355 357 360 360 359 361 364 365 368 373 373 367 368 373 372 365 362 362 363 368 369 367
320 320 321 322 323 323 322 322 323 324 324 326 329 332 334 334 334 336 337 338 339 340 341 342 343 343 343 343 344 343 345 347 348 349 350 352 353 352 353 354 354 354 356 358 357 359 361 363 364 365 369 369 369 370 371 370 370 369 364 364 367 369 369
319 319 321 321 322 322 321 320 322 323 323 325 328 330 330 330 331 333 334 336 337 339 340 341 342 342 343 344 343 344 345 346 347 349 350 351 352 353 354 354 355 356 357 357 357 359 360 361 361 361 363 364 366 367 367 366 369 371 370 369 369 370 371
319 319 321 320 320 321 319 319 320 321 324 326 326 326 326 328 329 330 331 333 336 338 340 341 341 341 342 342 343 344 345 346 347 347 348 350 352 352 353 354 354 356 357 357 358 359 358 358 358 359 360 361 363 365 367 368 370 371 371 370 371 371 370
318 318 319 319 319 319 318 319 319 321 324 324 324 324 325 326 327 328 329 330 333 336 339 340 341 341 342 342 343 343 344 345 346 345 347 349 351 351 352 352 353 355 356 356 357 357 356 356 357 358 358 358 360 362 365 366 370 371 370 368 369 370 368
316 317 318 319 318 318 318 319 319 321 321 322 322 323 323 324 326 326 326 328 330 333 336 339 340 342 343 342 342 342 343 344 345 345 346 348 349 350 351 351 352 353 355 355 355 355 355 355 356 356 356 356 357 359 362 366 369 370 370 370 369 368 367
316 316 317 318 318 318 318 318 319 319 320 320 320 322 322 323 324 325 325 326 327 330 333 337 339 341 343 342 342 343 343 343 344 345 346 347 349 350 350 350 352 352 353 353 354 354 353 354 354 354 354 354 354 356 360 364 366 366 368 369 368 369 369
315 315 316 317 317 317 317 317 318 318 318 319 320 320 321 322 322 322 323 325 326 327 331 335 338 341 342 342 342 343 343 343 344 347 347 348 349 349 349 350 350 350 351 352 353 353 353 353 353 353 353 353 353 354 355 358 361 364 365 365 366 367 367
315 315 316 317 316 317 317 317 318 318 318 318 319 319 320 320 321 322 322 323 324 325 329 333 337 340 341 341 342 343 344 343 344 346 347 347 347 348 349 350 350 350 351 351 351 352 352 352 352 352 351 351 351 351 352 354 356 359 361 362 362 364 364
Wind_Speed
20 21 20 19 16 10 10 12 13 12 11 11 7 8 11 11 10 8 8 9 9 8 10 12 12 12 15 18 18 17 14 21 22 18 19 19 17 19 19 18 19 18 16 14 17 20 24 31 36 37 37 38 39 38 38 40 41 41 43 42 41 40 39
21 19 20 22 19 12 9 11 13 11 12 12 7 6 7 9 9 7 9 13 11 9 8 10 14 14 12 14 18 19 16 17 21 20 21 21 19 18 19 20 20 20 17 15 19 24 29 36 39 39 38 37 37 37 37 39 39 39 41 41 41 41 41
20 18 18 18 19 19 14 11 13 11 10 10 8 7 7 8 8 6 10 13 11 10 9 10 15 16 15 15 15 18 19 17 16 18 22 23 19 16 15 17 18 18 18 18 24 31 33 38 39 37 36 35 33 34 35 37 39 40 40 40 39 40 41
19 15 14 14 15 19 17 12 13 11 9 8 9 8 7 7 7 6 8 9 7 8 8 11 14 14 15 15 13 14 18 17 13 14 20 21 17 14 14 16 18 17 18 20 27 32 31 34 37 35 35 35 34 33 34 35 36 37 38 37 37 38 38
20 13 13 16 15 16 15 13 12 11 9 8 9 9 8 7 6 5 6 7 7 8 8 12 14 13 15 14 11 11 14 17 15 13 17 19 16 15 15 16 19 19 18 19 23 27 25 28 33 35 35 36 35 34 34 35 35 35 36 36 36 37 37
17 15 17 20 20 19 15 12 12 12 11 10 9 9 10 8 7 5 5 5 4 3 5 10 11 11 13 13 12 10 12 17 16 14 17 19 17 16 16 17 19 19 17 16 17 22 22 26 32 34 35 35 35 34 34 35 35 35 36 36 37 38 38
15 20 20 21 22 22 19 15 13 12 12 11 9 8 8 9 9 7 7 5 1 4 2 5 8 10 12 12 11 10 12 14 15 17 18 19 19 16 16 18 19 17 15 15 17 21 25 29 32 34 33 34 36 36 35 34 35 36 37 36 36 38 38
12 19 20 20 21 20 17 16 15 13 13 13 11 8 7 8 10 9 7 6 3 4 3 3 6 6 11 12 11 12 12 11 11 16 15 15 18 15 15 16 15 14 14 14 15 17 22 27 29 31 33 33 34 35 35 35 36 37 37 35 35 36 36
9 16 16 15 18 17 13 13 17 18 17 18 14 10 7 7 10 11 8 6 4 6 4 4 6 3 8 11 11 12 12 9 9 12 12 14 18 15 13 12 14 15 14 13 13 13 16 22 25 29 31 31 32 34 35 35 35 35 36 35 34 35 35
12 14 13 12 14 13 12 15 21 23 22 21 15 9 8 7 8 11 9 6 5 9 8 6 7 7 8 10 11 10 9 5 1 6 9 11 14 14 12 11 13 14 13 13 13 11 13 20 23 25 28 30 31 32 34 34 33 34 35 35 34 34 34
9 4 6 10 14 15 16 19 23 25 24 22 15 9 8 8 7 9 8 5 8 12 10 7 8 9 7 11 13 9 11 13 10 10 11 10 10 10 10 10 11 12 11 13 15 13 16 22 24 24 27 30 29 29 32 32 32 33 34 34 35 34 34
11 4 3 1 8 15 21 23 22 24 26 24 18 13 11 9 7 8 8 8 10 12 11 10 10 7 5 10 14 11 13 13 10 9 11 12 11 9 7 6 9 11 8 10 14 14 16 21 24 24 27 29 29 28 30 31 31 32 33 34 34 34 34
15 13 7 6 8 7 14 23 24 24 26 27 22 16 15 12 7 7 9 9 9 10 10 11 12 9 7 8 10 12 14 11 9 9 11 14 13 11 8 7 9 10 6 7 11 12 14 18 21 23 24 27 28 27 28 30 31 31 32 33 33 33 34
16 15 14 10 7 11 10 18 24 22 24 27 23 18 18 15 9 9 10 8 5 9 11 10 10 10 9 9 8 10 12 10 7 7 11 14 14 12 10 8 9 9 7 7 9 9 10 13 17 20 22 23 26 27 27 29 31 30 31 32 33 33 34
14 15 15 12 9 11 14 14 22 24 22 25 24 20 18 16 12 12 12 9 6 8 10 11 9 8 8 9 9 8 9 8 8 8 8 12 16 16 13 10 9 9 8 6 7 9 10 11 14 18 19 20 24 27 27 28 30 30 30 31 34 34 33
10 13 16 15 11 12 15 15 18 25 21 20 21 18 17 14 13 14 13 11 8 7 11 13 10 7 7 7 7 6 6 7 6 5 4 5 8 13 15 13 11 11 11 10 10 11 12 13 15 16 17 19 22 25 26 27 28 29 30 30 33 35 33
8 12 15 14 11 11 10 10 12 18 16 16 18 18 18 17 15 13 10 8 7 7 10 14 12 9 7 5 4 4 6 6 3 3 4 4 2 4 9 11 12 13 13 13 13 12 13 16 17 17 19 20 20 22 23 25 27 29 30 29 31 34 34
8 12 13 11 12 10 6 9 14 11 9 14 19 21 21 18 15 11 9 9 9 9 8 9 11 9 7 5 4 3 3 2 1 1 1 2 3 1 2 3 5 6 6 9 9 8 11 17 20 20 21 20 20 21 21 23 26 28 29 28 28 32 35
6 9 10 12 13 10 7 12 15 8 8 12 10 13 20 22 19 16 14 13 11 7 4 5 7 6 7 7 5 3 3 3 3 3 4 4 3 3 3 2 4 6 8 6 4 3 2 7 15 21 21 20 20 22 22 22 24 25 27 27 25 28 34
5 7 9 10 8 8 11 13 11 8 8 9 7 6 13 19 19 14 11 10 12 10 6 5 5 5 6 7 4 2 3 3 1 2 1 2 5 6 3 5 8 7 7 6 5 5 4 4 4 13 18 19 20 21 22 23 24 23 23 25 25 25 30
5 5 8 8 7 11 14 11 9 9 7 6 5 7 5 4 7 8 7 7 9 10 8 6 5 5 5 5 3 2 0 2 2 2 7 8 4 2 6 11 11 10 9 7 5 4 3 5 6 7 10 16 20 21 21 21 22 23 22 24 26 25 26
4 4 5 8 10 11 10 9 9 8 4 6 6 6 4 1 1 4 7 6 6 8 10 9 7 7 6 5 4 4 4 6 8 10 13 14 11 10 11 12 12 13 11 8 6 5 5 6 8 8 8 10 13 19 21 21 21 22 23 23 26 26 25
6 5 4 6 8 6 5 11 11 8 5 6 7 5 4 1 3 4 8 8 5 2 2 5 6 6 7 5 4 6 8 11 13 12 11 11 10 10 12 13 12 10 7 6 7 7 7 7 7 8 9 11 10 11 17 20 20 21 23 23 24 26 24
6 6 6 4 3 3 7 8 7 8 6 6 6 6 2 7 11 9 5 4 8 8 8 7 5 4 4 3 4 7 9 10 11 10 9 10 9 9 12 13 11 8 6 5 6 6 4 5 6 7 7 9 11 9 10 16 19 20 23 24 23 24 24
7 7 7 3 4 6 14 8 8 7 2 8 6 5 2 9 11 13 13 9 10 11 9 6 3 1 6 8 8 8 10 10 10 10 9 9 9 10 11 10 9 8 8 7 6 6 7 8 7 8 7 7 9 10 9 11 16 18 21 23 23 24 25
6 5 7 3 5 6 14 10 14 14 3 6 2 4 7 9 10 13 14 14 14 12 9 8 7 7 10 11 9 10 11 10 10 10 9 10 10 11 10 8 9 9 8 7 7 6 8 10 11 10 9 9 8 9 9 9 11 13 15 21 25 25 26
6 7 7 3 2 6 14 10 10 11 6 3 4 8 9 11 14 14 12 13 13 11 9 10 10 10 11 12 11 11 11 10 10 10 10 10 10 10 9 8 11 11 8 7 8 8 9 11 12 12 12 11 9 7 7 7 8 8 8 16 24 25 26
6 6 3 1 2 4 12 11 6 7 7 6 6 6 7 10 12 10 9 10 11 10 9 10 10 10 11 12 12 12 11 11 11 10 10 10 8 9 9 9 12 11 8 7 8 9 10 10 8 9 12 12 8 4 4 6 5 5 4 9 19 22 23
5 3 1 3 4 4 10 10 7 7 7 8 8 7 7 8 9 8 8 9 10 10 9 8 8 9 10 11 11 12 11 11 11 9 9 9 8 9 10 11 13 12 10 7 8 8 9 9 7 8 10 9 4 3 6 7 3 3 4 4 13 16 18
7 5 3 5 4 4 8 7 6 7 7 8 9 8 7 7 7 7 8 8 9 9 8 7 7 8 9 9 10 10 10 10 11 10 10 10 9 10 11 11 12 12 10 8 8 7 8 10 10 9 9 8 8 7 7 6 5 5 5 2 8 11 12
5 4 2 1 5 5 7 7 6 7 8 8 8 6 6 7 8 8 8 9 9 8 8 7 7 7 8 8 8 9 9 8 9 10 10 10 10 9 10 11 11 10 9 7 7 6 8 11 12 11 10 10 11 9 6 4 2 2 3 1 7 9 9
6 8 7 8 10 9 7 6 7 6 7 8 8 7 7 7 8 9 9 9 9 9 8 8 7 7 8 7 7 7 8 7 7 8 8 9 9 8 8 9 10 9 7 6 6 7 8 8 9 9 9 10 10 10 9 8 5 1 2 2 5 8 8
7 9 11 10 10 11 8 7 6 5 6 6 7 8 8 9 9 10 10 9 9 9 9 9 8 7 7 7 6 6 7 5 5 6 7 8 9 9 8 7 7 7 7 5 5 6 6 6 6 7 7 8 8 8 9 11 11 4 5 6 6 8 9
6 7 8 8 7 8 7 5 3 6 8 9 9 9 9 10 11 11 11 11 10 9 9 9 9 7 7 7 7 6 5 4 4 5 6 7 8 8 7 6 5 5 5 5 5 5 5 5 6 8 8 8 8 8 6 5 8 8 3 4 6 9 8
8 8 9 8 7 7 8 9 9 9 9 11 12 10 9 10 10 11 12 12 12 12 10 10 10 9 8 8 8 8 6 5 5 5 5 5 6 5 5 4 4 4 4 4 5 5 4 4 5 7 7 7 7 9 8 5 4 6 8 7 6 7 6
12 13 13 11 9 9 10 13 13 11 9 11 13 12 11 10 10 11 12 12 12 13 12 11 11 10 9 8 8 9 8 6 5 4 3 3 4 4 3 2 1 2 2 3 3 4 4 4 5 6 7 8 9 10 11 9 6 4 6 7 8 8 9
13 13 13 14 13 12 11 11 12 11 9 10 13 13 13 13 12 12 12 11 11 11 12 11 11 11 10 8 7 8 8 7 5 4 3 2 1 1 2 2 2 2 2 3 4 4 4 5 6 7 7 7 8 8 8 10 10 9 10 10 9 8 7
Wind_Direction
204 197 198 205 211 197 185 198 209 211 206 212 225 224 218 216 226 221 211 223 222 230 246 230 224 228 219 214 216 226 207 169 175 186 180 185 189 179 175 177 181 182 180 184 188 191 197 200 202 199 195 192 187 184 184 183 183 183 184 186 188 189 190
206 194 192 206 219 211 190 194 202 201 206 216 228 237 227 217 227 223 213 225 217 208 227 217 214 221 223 219 208 215 221 189 180 185 177 182 192 183 170 167 171 175 175 179 187 191 197 202 202 199 195 193 188 185 183 182 182 183 184 185 187 189 190
195 184 188 205 217 220 219 198 188 197 206 202 207 229 231 221 228 223 216 227 222 208 208 202 209 210 210 225 217 206 215 207 190 185 175 177 187 183 170 164 167 175 175 176 185 192 200 203 201 198 195 192 190 187 185 183 183 183 184 185 186 189 189
185 179 190 202 206 214 225 212 191 201 212 198 198 215 230 228 224 220 221 229 233 226 204 190 204 202 196 215 225 211 209 205 196 184 169 170 180 182 179 172 167 173 177 180 185 189 200 207 201 196 196 194 193 190 187 187 186 184 185 186 187 188 188
188 187 193 198 197 200 212 214 198 195 202 202 203 209 220 233 232 219 218 224 234 235 208 191 197 191 183 199 218 214 207 202 196 179 164 167 177 180 182 176 168 175 181 181 179 177 191 213 206 195 195 195 194 193 190 189 188 186 186 187 187 189 190
197 197 193 196 201 201 201 209 206 196 194 199 205 207 207 219 238 238 231 237 246 244 201 186 181 171 169 189 207 203 203 204 193 181 175 172 174 180 180 170 163 173 180 175 168 163 179 213 212 198 196 195 194 195 193 192 191 189 189 189 188 190 192
210 194 188 194 204 207 204 207 211 202 196 199 208 208 196 204 224 235 246 249 311 31 43 149 144 151 163 181 196 187 201 215 194 185 189 175 169 178 175 167 164 169 174 172 168 168 184 207 209 198 196 196 194 196 195 193 193 192 192 191 190 191 192
223 192 186 192 203 210 209 206 209 209 202 199 208 214 199 202 210 212 231 233 162 68 35 84 91 128 164 173 187 181 192 224 197 180 187 167 156 171 178 170 162 157 159 165 170 177 190 201 199 194 196 197 195 196 196 195 195 194 193 192 191 191 193
226 190 183 188 199 210 216 205 202 212 210 198 201 214 208 207 207 202 213 223 164 108 101 97 93 167 187 166 178 184 180 213 211 175 167 153 148 164 179 158 139 144 153 162 172 181 189 193 192 192 196 198 196 197 197 196 196 195 194 193 192 191 191
214 195 190 194 193 199 219 212 198 205 214 204 196 203 208 205 198 198 211 220 159 122 113 113 135 196 203 155 168 184 148 132 190 131 127 139 147 157 163 147 141 154 163 167 175 180 181 188 193 192 194 199 200 199 199 198 197 195 194 194 192 191 191
226 190 174 199 200 193 209 216 201 197 211 212 199 197 209 201 187 198 212 200 147 137 146 171 172 183 180 155 166 164 106 83 65 70 85 101 123 139 148 152 157 164 168 171 176 179 179 186 194 193 194 199 201 200 200 200 199 196 195 195 193 192 192
246 229 83 309 236 207 204 213 208 195 201 212 207 199 198 189 186 197 185 160 158 161 170 177 164 150 143 156 159 133 97 95 98 96 100 105 112 125 131 129 139 152 169 171 170 176 179 185 194 196 196 200 202 201 200 200 201 199 196 195 194 192 192
246 238 246 299 306 271 216 211 211 198 195 207 210 203 195 187 194 197 162 152 167 162 153 148 142 134 118 128 139 117 97 97 105 115 124 121 120 131 136 117 120 144 179 175 164 174 179 183 192 197 198 198 200 201 200 200 202 202 197 195 195 193 193
246 245 246 248 283 311 275 220 211 202 196 202 207 208 200 190 198 201 170 161 164 138 137 143 138 137 125 101 100 110 111 114 123 129 132 131 129 132 135 128 129 148 174 172 165 176 184 187 193 198 199 197 197 200 200 200 203 203 198 193 194 196 196
247 247 251 248 248 279 288 251 215 202 197 199 203 210 206 191 194 203 182 169 169 147 154 160 141 130 123 101 103 117 114 115 133 141 137 140 143 141 143 148 149 157 167 166 171 180 189 198 200 199 200 198 198 201 202 201 202 203 200 193 192 198 199
255 249 242 237 230 244 276 277 224 202 198 198 197 204 211 195 184 196 192 180 173 148 145 148 136 114 96 93 114 120 78 67 100 131 113 113 135 143 152 155 152 163 175 175 182 190 194 202 207 205 202 200 201 203 203 202 202 203 204 197 192 196 198
253 254 241 225 220 232 260 282 239 209 206 207 197 198 211 207 193 194 195 180 173 171 158 147 138 133 120 101 98 84 64 58 52 51 51 30 22 135 148 149 154 173 182 176 180 190 191 194 203 208 206 203 205 207 204 202 201 203 206 203 194 192 195
243 251 249 226 218 220 226 250 240 225 231 228 208 197 201 206 205 200 184 169 179 201 190 144 123 133 151 150 127 97 87 103 87 64 117 240 259 205 141 150 156 158 144 146 165 181 185 191 195 201 207 206 205 209 209 205 203 204 206 207 199 191 192
240 240 242 224 217 211 219 240 235 233 276 271 245 210 199 198 201 199 185 169 159 161 169 124 107 128 147 139 131 137 129 117 128 179 196 211 245 279 302 1 61 66 75 97 127 119 153 200 189 186 196 204 203 206 209 208 208 206 205 208 205 193 191
238 216 223 223 221 214 224 239 232 224 262 287 307 272 212 193 188 186 171 144 128 127 142 142 122 116 114 104 88 66 80 93 175 224 237 235 235 238 213 97 79 64 59 52 42 44 15 320 217 184 189 196 200 205 207 207 209 208 204 206 209 199 191
239 220 225 227 233 220 217 226 217 208 237 269 273 269 254 180 148 139 132 135 144 153 162 154 142 144 132 123 138 144 80 278 254 9 25 23 10 21 74 80 75 61 50 40 30 22 331 290 270 240 211 199 196 199 204 206 205 207 207 206 208 205 196
253 249 241 226 224 212 208 226 222 203 233 285 274 252 252 298 99 150 166 180 187 189 185 172 161 162 161 154 139 106 42 21 31 38 37 34 32 39 55 65 65 54 39 18 359 336 294 267 261 264 259 236 207 192 195 203 203 204 210 209 207 207 201
262 257 263 239 216 190 216 233 215 180 191 269 282 237 201 258 318 260 216 186 142 70 124 113 106 135 154 148 99 55 37 36 37 32 32 32 28 36 49 51 47 37 15 337 314 293 274 268 266 254 251 259 251 206 192 199 201 203 209 210 207 207 205
273 262 265 249 164 31 316 255 184 144 172 217 227 194 174 358 358 350 315 172 117 64 42 66 100 148 145 90 40 22 22 32 30 20 23 26 18 23 37 39 30 11 351 330 311 303 325 348 314 279 254 253 262 255 219 206 205 205 207 209 207 206 206
264 255 254 227 108 359 325 336 49 38 205 193 187 180 303 338 356 16 15 34 61 51 49 67 87 44 17 15 15 12 15 22 18 8 11 16 15 13 14 20 24 8 357 355 335 327 1 10 340 306 291 279 270 269 259 232 219 213 206 205 204 202 201
255 245 247 214 111 343 325 358 31 12 342 172 156 331 323 337 7 23 28 40 39 31 39 42 21 4 1 3 11 13 11 12 7 4 8 12 15 10 357 9 32 18 355 353 346 346 5 4 353 339 316 301 288 274 272 261 239 227 211 201 199 197 197
247 236 247 233 127 340 341 10 35 16 21 90 24 346 345 11 23 19 26 40 31 21 30 23 6 2 2 4 11 11 9 8 1 3 11 7 4 359 349 11 31 11 346 354 358 360 9 360 347 344 333 319 304 278 283 290 259 245 227 201 194 191 191
240 227 246 336 223 335 9 30 49 37 49 64 39 8 7 21 23 15 23 29 21 24 28 8 358 6 5 3 4 1 1 2 357 1 7 359 355 352 347 10 25 2 341 359 5 357 3 0 346 338 330 319 301 274 321 328 276 260 267 200 187 184 185
278 265 305 313 285 2 32 33 26 22 38 57 48 28 21 24 16 11 20 14 8 19 20 3 5 10 1 357 358 353 352 353 350 352 354 350 352 352 348 7 17 356 333 350 8 356 353 359 0 348 336 330 341 39 25 14 349 296 300 204 179 176 178
321 306 231 246 287 27 41 20 358 355 6 35 44 29 20 18 6 7 15 5 357 3 4 6 13 3 351 354 354 346 345 348 347 349 351 350 353 352 352 1 2 344 330 345 4 2 2 8 10 1 358 12 32 30 13 13 19 349 316 207 166 164 166
312 302 193 249 319 0 27 6 332 328 351 22 36 26 12 3 356 2 5 357 356 357 356 9 16 353 342 350 347 338 338 344 346 348 348 348 350 352 356 358 352 344 343 350 353 4 17 15 6 1 9 19 21 15 354 334 351 347 330 148 153 159 162
270 277 292 315 313 316 334 329 306 317 356 18 18 8 357 346 347 356 354 350 357 359 354 0 5 349 341 348 344 329 328 337 342 338 336 337 337 340 350 354 351 351 356 2 8 18 25 14 358 358 8 10 9 10 5 356 350 287 202 175 165 172 179
266 267 277 284 286 289 287 273 281 326 359 2 355 354 347 340 342 346 344 345 352 357 357 358 356 346 341 342 335 321 321 332 335 327 322 321 321 325 332 335 340 350 357 7 20 27 24 13 10 15 16 11 11 10 7 3 0 359 183 184 180 178 189
255 254 264 268 275 283 277 269 319 3 1 345 340 341 338 337 338 336 336 339 341 347 355 356 348 342 338 332 324 316 322 337 330 316 308 304 310 324 331 326 329 349 3 13 28 43 40 25 28 32 24 17 16 11 7 4 3 14 75 162 174 170 179
277 288 293 295 297 294 295 310 333 348 344 328 323 325 327 329 330 330 331 333 334 337 345 348 345 340 332 324 321 319 325 335 327 314 307 306 312 320 324 327 342 2 12 22 31 40 40 28 35 39 28 19 12 6 8 17 18 34 53 58 79 102 89
292 296 299 302 302 298 301 311 317 324 329 319 311 312 315 317 318 319 321 324 327 327 330 336 340 333 321 315 317 317 316 320 323 319 316 316 317 317 316 321 354 1 2 23 31 31 33 37 48 51 37 23 9 1 6 17 21 46 74 68 71 81 68
299 298 299 299 297 295 296 297 294 294 298 298 296 299 304 307 309 310 311 314 317 316 317 322 328 326 320 316 314 309 303 304 310 310 296 285 285 25 40 48 69 69 58 61 57 53 59 59 57 60 56 39 15 356 0 15 25 49 75 75 73 90 90